Temp
11 10 10 10 10 10 10 10 10 10 10 10 11 11 11 11 11 11 10 10 9 9
9 9 9 9 8 8 8 8 9 9 9 10 10 10 10 10 10 9 9 9 8 8
7 7 7 7 7 7 7 7 8 8 8 9 9 9 9 9 9 9 9 8 8 8
6 6 6 7 7 7 7 7 7 7 8 8 8 8 9 9 9 8 8 8 7 6
5 5 6 6 6 6 7 7 7 7 7 7 7 7 7 7 7 7 7 7 5 5
4 5 5 5 6 6 6 6 6 6 5 6 5 5 5 5 5 5 4 4 4 4
3 4 4 5 5 5 5 5 5 5 5 4 3 2 2 2 2 3 3 3 3 2
3 3 3 4 4 4 5 5 4 4 4 4 3 3 3 3 3 3 3 3 3 3
2 2 2 3 3 4 4 4 3 3 3 3 3 2 2 2 2 2 2 2 2 1
2 2 1 2 2 2 3 2 2 2 3 3 2 2 2 2 1 2 1 1 1 -0
1 1 1 1 1 1 1 1 2 2 2 2 2 2 1 2 1 1 1 0 -0 -1
1 1 1 1 1 1 1 2 1 1 1 1 2 1 1 1 1 0 -0 -0 -1 -1
0 1 1 1 1 1 1 1 1 1 1 1 1 0 0 -0 -0 -0 -0 -1 -1 -2
-0 2 1 0 0 1 2 1 1 0 0 1 0 0 0 -0 -1 -1 -1 -2 -2 -3
Height
1507 1507 1507 1506 1506 1506 1506 1506 1505 1504 1503 1503 1503 1503 1504 1504 1504 1504 1505 1505 1505 1505
1504 1503 1503 1503 1502 1501 1501 1501 1500 1499 1499 1498 1498 1498 1498 1498 1498 1499 1499 1499 1499 1499
1500 1500 1499 1499 1498 1498 1497 1496 1496 1495 1494 1494 1494 1493 1493 1493 1493 1493 1493 1493 1493 1492
1496 1496 1495 1495 1495 1495 1494 1493 1492 1491 1490 1490 1489 1488 1488 1488 1488 1488 1488 1488 1487 1487
1493 1493 1493 1493 1492 1492 1491 1489 1488 1487 1486 1485 1484 1483 1482 1482 1483 1482 1482 1482 1482 1483
1489 1489 1489 1489 1489 1488 1487 1486 1485 1484 1483 1481 1479 1478 1477 1477 1477 1477 1477 1477 1478 1479
1486 1486 1485 1485 1485 1485 1484 1483 1483 1481 1480 1479 1477 1477 1475 1474 1474 1474 1474 1474 1474 1474
1482 1482 1481 1482 1482 1481 1481 1480 1480 1479 1479 1477 1476 1474 1474 1473 1473 1473 1472 1472 1472 1473
1480 1480 1479 1479 1479 1478 1478 1478 1478 1478 1478 1477 1476 1475 1474 1474 1473 1473 1472 1472 1472 1473
1477 1478 1477 1477 1477 1477 1477 1477 1477 1477 1478 1477 1477 1477 1476 1475 1475 1474 1473 1473 1473 1473
1475 1476 1476 1476 1476 1476 1477 1477 1478 1479 1479 1478 1478 1477 1478 1477 1476 1475 1474 1473 1473 1473
1473 1474 1475 1475 1476 1477 1477 1478 1480 1480 1480 1480 1479 1478 1479 1478 1477 1476 1474 1473 1472 1472
1472 1473 1475 1477 1478 1478 1479 1480 1480 1482 1482 1481 1479 1479 1479 1478 1477 1475 1473 1472 1471 1470
1471 1473 1476 1478 1479 1479 1480 1481 1481 1483 1482 1481 1480 1479 1478 1477 1476 1474 1472 1470 1469 1468
Wind_Speed
17 18 18 18 18 19 19 20 20 20 19 19 19 20 18 19 20 20 17 20 21 23
16 16 16 16 17 17 18 19 19 20 20 21 20 20 19 19 19 18 19 20 22 21
15 14 14 14 15 16 16 15 15 15 14 15 16 18 19 19 18 19 20 20 22 21
15 14 14 14 14 15 15 15 14 14 14 15 16 16 16 17 19 20 21 22 22 21
15 14 14 13 13 13 14 14 14 15 15 16 16 17 17 17 18 18 18 19 20 16
13 13 13 13 13 13 13 13 13 13 12 12 13 13 12 12 13 13 12 11 12 13
11 11 11 11 11 11 11 11 11 10 9 9 10 7 6 4 4 5 7 8 8 11
7 8 8 9 9 10 9 9 8 7 6 5 5 4 3 3 1 2 2 3 4 4
8 9 10 9 7 7 7 6 4 3 1 1 4 7 8 8 7 7 6 5 4 4
9 9 10 8 6 5 3 2 3 3 4 4 6 7 8 10 8 8 7 7 6 6
9 9 8 6 5 7 7 6 6 7 8 8 9 9 8 7 7 7 7 7 7 7
9 8 7 6 8 9 10 9 8 8 8 8 7 7 6 6 7 6 6 7 8 9
9 8 8 10 11 10 9 7 7 6 4 4 4 5 6 7 7 7 8 8 9 10
10 11 12 11 10 9 8 6 5 3 1 3 5 6 6 6 8 9 9 9 9 9
Wind_Direction
281 281 282 282 282 281 281 279 277 278 279 278 271 263 262 260 263 264 265 274 283 285
282 281 282 282 281 283 283 283 283 280 276 275 275 275 271 266 260 256 258 262 274 279
282 279 278 278 280 282 285 286 287 287 284 278 272 268 266 267 267 264 265 270 279 282
276 274 275 276 278 280 283 286 288 288 286 282 277 273 270 267 266 266 269 277 281 283
270 269 270 272 275 279 283 287 292 293 293 291 286 278 272 267 265 267 272 276 279 278
267 267 268 270 272 276 281 287 292 294 297 305 299 288 278 268 264 267 272 274 278 281
267 266 266 268 269 272 275 281 289 290 294 316 327 316 308 287 281 281 279 284 292 300
264 269 273 271 269 268 271 279 289 289 285 306 324 333 4 28 357 315 328 325 317 308
276 291 289 280 272 270 270 275 272 254 251 19 59 78 88 77 74 72 65 55 47 29
268 275 279 269 258 246 219 174 157 139 118 106 91 80 75 70 61 54 44 35 20 11
257 255 252 234 189 161 148 137 131 119 102 86 79 71 66 59 45 34 25 13 360 348
226 222 204 176 160 146 137 129 119 106 94 91 80 67 48 35 22 11 1 348 336 325
203 188 178 163 150 140 131 127 121 109 98 83 63 44 20 8 356 348 341 331 322 318
179 168 162 160 150 143 144 145 132 136 72 28 11 1 359 351 344 341 336 328 319 314